Regional Weather Roundup
Issued by NWS

Home | Current Version | Previous Version | Text Only | Print | Product List | Glossary On
Versions: 1 2 3 4 5 6 7 8 9 10 11 12 13 14 15 16 17 18 19 20 21 22 23 24 25 26 27 28 29 30 31 32 33 34 35 36 37 38 39 40 41 42 43 44 45 46 47 48 49 50
000
ASUS43 KOAX 281102
RWRNE

WEATHER ROUNDUP FOR NEBRASKA
NATIONAL WEATHER SERVICE OMAHA NE
600 AM CDT THU APR 28 2016

NOTES: SATELLITE DATA IS BEING USED TO AUGMENT CLOUD COVER ABOVE
       12000 FEET.
       "FAIR" INDICATES FEW OR NO CLOUDS BELOW 12,000 FEET WITH NO
       SIGNIFICANT WEATHER AND/OR OBSTRUCTIONS TO VISIBILITY.

  * THESE STATIONS DO NOT REPORT WEATHER SUCH AS RAIN...SNOW OR FOG.

NEZ001>004-019>022-054>056-281200-
NEBRASKA PANHANDLE

CITY           SKY/WX    TMP DP  RH WIND       PRES   REMARKS
SCOTTSBLUFF    CLOUDY    33  28  81 N5        29.95S WCI  29
ALLIANCE       CLOUDY    31  28  89 N12       29.94R WCI  22
CHADRON        CLOUDY    33  30  88 N5        29.97R WCI  29
KIMBALL        PTCLDY    30  29  96 NW5       29.94R WCI  26
SIDNEY         CLEAR     25  23  92 NW12      29.94S WCI  14
$$

NEZ057>060-069>072-079>082-281200-
SOUTHWEST NEBRASKA

CITY           SKY/WX    TMP DP  RH WIND       PRES   REMARKS
NORTH PLATTE   CLEAR     31  29  92 W9        29.93R WCI  23
IMPERIAL       CLEAR     32  28  85 NW10      29.94R WCI  24
LEXINGTON      CLOUDY    35  32  88 NW13      29.91R WCI  26
MCCOOK         CLEAR     32  28  85 W10       29.92R WCI  24
$$

NEZ005>010-023>029-035>040-094-281200-
NORTH CENTRAL NEBRASKA

CITY           SKY/WX    TMP DP  RH WIND       PRES   REMARKS
VALENTINE      CLOUDY    33  32  96 NW14      29.92R FOG     WCI  23
BROKEN BOW     CLOUDY    35  33  92 NW12G21   29.88R WCI  27
ORD            CLOUDY    40  38  93 NW15      29.85R WCI  32
$$

NEZ041-046>049-061>064-073>077-083>087-281200-
SOUTH CENTRAL NEBRASKA

CITY           SKY/WX    TMP DP  RH WIND       PRES   REMARKS
GRAND ISLAND   CLOUDY    40  37  89 NW18G25   29.85R WCI  31
AURORA         CLOUDY    41  40  97 NW17      29.84R FOG
HASTINGS       CLOUDY    39  35  86 NW16      29.86R WCI  30
KEARNEY *      CLOUDY    37  34  87 NW14      29.89R WCI  29
YORK           CLOUDY    43  41  93 NW16      29.82R
$$

NEZ011>018-030>034-042>045-281200-
NORTHEAST NEBRASKA

CITY           SKY/WX    TMP DP  RH WIND       PRES   REMARKS
NORFOLK        LGT RAIN  41  40  96 N13       29.80R FOG
ALBION         CLOUDY    42  40  93 NW13G20   29.82R
BLAIR          DRIZZLE   47  46  97 NW8       29.73R
COLUMBUS *     CLOUDY    43  36  75 NW16      29.81R
FREMONT        CLOUDY    44  44 100 NW14      29.77R FOG
TEKAMAH        LGT RAIN  45  43  93 N13       29.75R
$$

NEZ050>053-065>068-078-088>093-281200-
SOUTHEAST NEBRASKA

CITY           SKY/WX    TMP DP  RH WIND       PRES   REMARKS
LINCOLN        CLOUDY    48  43  82 NW16      29.79R
OMAHA EPPLEY   CLOUDY    47  45  93 N5        29.73R
FALLS CITY     CLOUDY    47  45  93 W16       29.75R
$$

NEZ044-045-051>053-067-281200-
OMAHA AREA

CITY           SKY/WX    TMP DP  RH WIND       PRES   REMARKS
OMAHA EPPLEY   CLOUDY    47  45  93 N5        29.73R
BLAIR          DRIZZLE   47  46  97 NW8       29.73R
FREMONT        CLOUDY    44  44 100 NW14      29.77R FOG
OFFUTT AFB     CLOUDY    47  47  99 NW9       29.72R
$$




USA.gov is the U.S. government's official web portal to all federal, state and local government web resources and services.